Date_and_time,latitude,longitude,wind_speed,RelWindDirFrom,WindDirFrom,air_pressure,air_temperature,relative_humidity,Temp,platform_speed_wrt_ground,air_pressure_at_mean_sea_level,platform_orientation
2018-05-02 23:50,50.6304316666667,-96.9807566666667,7.8,9.1,67,981.25,10.6,40,4.84,0.0,1007.66,360.0
2018-05-03 00:00,50.6304316666667,-96.9807583333333,5.6,8.5,95,981.24,8.0,47,4.79,0.0,1007.76,347.4
2018-05-03 00:10,50.6304433333333,-96.9807766666667,5.4,7.4,111,981.22,8.4,39,4.72,0.0,1007.70,347.4
2018-05-03 00:20,50.63041,-96.9807616666667,6.9,7.6,70,981.07,10.1,34,4.68,0.0,1007.47,347.4
2018-05-03 00:30,50.6304116666667,-96.98076,6.9,8.1,46,980.96,9.9,37,4.65,0.0,1007.39,347.4
2018-05-03 00:40,50.6304133333333,-96.9807566666667,4.0,6.8,63,981.00,9.6,40,4.64,0.0,1007.44,347.4
2018-05-03 00:50,50.630435,-96.98077,1.9,4.5,47,980.96,8.0,46,4.62,0.0,1007.49,347.4
2018-05-03 01:00,50.630435,-96.98077,3.0,3.8,51,980.92,7.5,46,4.62,0.0,1007.47,270.0
2018-05-03 01:10,50.6304266666667,-96.9807716666667,4.1,5.2,12,980.88,7.0,48,4.62,0.0,1007.46,270.0
2018-05-03 01:20,50.6304316666667,-96.9807716666667,5.2,5.9,6,980.91,7.0,48,4.62,0.0,1007.50,270.0
2018-05-03 01:30,50.6304333333333,-96.9807716666667,5.1,6.3,7,980.95,8.0,43,4.61,0.0,1007.50,270.0
2018-05-03 01:40,50.6304333333333,-96.98077,4.9,6.1,14,981.02,8.7,41,4.61,0.0,1007.73,270.0
2018-05-03 01:50,50.6304333333333,-96.9807566666667,4.9,5.9,358,981.10,9.5,37,4.61,0.0,1007.91,270.0
2018-05-03 02:00,50.6304333333333,-96.98077,4.6,5.8,6,981.11,10.5,35,4.61,0.0,1007.85,345.5
2018-05-03 02:10,50.6304183333333,-96.9807666666667,3.8,5.2,355,981.24,10.1,37,4.60,0.0,1007.92,345.5
2018-05-03 02:20,50.6304566666667,-96.980825,3.3,6.2,178,981.48,7.8,48,4.60,0.0,1008.28,345.5
2018-05-03 02:30,50.6304316666667,-96.9807633333333,3.8,4.8,181,981.54,6.9,47,4.59,0.0,1008.41,345.5
2018-05-03 02:40,50.6304166666667,-96.9807516666667,1.5,3.3,172,981.55,7.3,45,4.59,0.0,1008.47,345.5
2018-05-03 02:50,50.630425,-96.98075,1.8,2.6,191,981.62,7.6,44,4.58,0.0,1008.56,345.5
2018-05-03 03:00,50.6304383333333,-96.98077,2.4,2.9,189,981.67,7.8,42,4.60,0.0,1008.62,345.5
2018-05-03 03:10,50.6304283333333,-96.9807683333333,2.5,3.1,191,981.72,8.1,42,4.61,0.0,1008.66,345.5
2018-05-03 03:20,50.6304566666667,-96.9807833333333,3.3,4.0,181,981.73,8.2,42,4.62,0.0,1008.62,345.5
2018-05-03 03:30,50.630415,-96.9807716666667,4.3,6.5,177,981.83,7.9,47,4.63,0.0,1008.70,345.5
2018-05-03 03:40,50.630415,-96.980765,4.6,5.3,184,981.91,7.5,48,4.63,0.0,1008.76,345.5
2018-05-03 03:50,50.6304166666667,-96.9807666666667,4.9,5.3,185,982.01,7.7,47,4.64,0.0,1008.81,345.5
2018-05-03 04:00,50.6304,-96.9807833333333,5.1,5.7,187,982.04,7.3,51,4.64,0.0,1008.87,207.9
2018-05-03 04:10,50.6304216666667,-96.9807633333333,5.2,6.0,187,982.05,7.3,51,4.65,0.0,1009.00,207.9
2018-05-03 04:20,50.6304216666667,-96.980765,5.4,6.2,185,982.10,7.1,52,4.65,0.0,1009.10,207.9
2018-05-03 04:30,50.630425,-96.9807616666667,4.5,5.4,192,982.11,7.2,52,4.65,0.0,1009.08,207.9
2018-05-03 04:40,50.630425,-96.9807633333333,3.5,4.2,208,982.12,8.0,45,4.65,0.0,1009.04,207.9
2018-05-03 04:50,50.630425,-96.9807666666667,3.2,3.6,216,982.14,8.9,40,4.65,0.0,1009.01,207.9
2018-05-03 05:00,50.6304266666667,-96.9807683333333,3.4,4.0,224,982.12,9.4,38,4.64,0.0,1008.96,360.0
2018-05-03 05:10,50.6304266666667,-96.9807683333333,4.2,5.0,224,982.18,9.3,38,4.63,0.0,1009.01,360.0
2018-05-03 05:20,50.6304266666667,-96.9807683333333,4.1,4.8,226,982.23,8.7,40,4.63,0.0,1009.10,360.0
2018-05-03 05:30,50.6304316666667,-96.980755,4.2,5.1,233,982.24,8.6,41,4.63,0.0,1009.15,360.0
2018-05-03 05:40,50.630435,-96.98076,4.9,6.6,245,982.37,8.4,42,4.63,0.0,1009.28,360.0
2018-05-03 05:50,50.630435,-96.9807566666667,6.3,8.5,264,982.49,8.0,43,4.63,0.0,1009.43,360.0
2018-05-03 06:00,50.630435,-96.9807633333333,5.3,6.8,252,982.59,8.1,41,4.63,0.0,1009.54,360.0
2018-05-03 06:10,50.6304316666667,-96.9807666666667,5.1,6.3,256,982.61,8.4,40,4.64,0.0,1009.55,360.0
2018-05-03 06:20,50.6304283333333,-96.9807616666667,5.0,5.7,248,982.60,8.5,40,4.65,0.0,1009.53,360.0
2018-05-03 06:30,50.6304266666667,-96.9807633333333,5.2,6.2,240,982.55,8.7,41,4.64,0.0,1009.43,360.0
2018-05-03 06:40,50.6304283333333,-96.98077,5.2,6.2,235,982.60,9.1,41,4.63,0.0,1009.42,360.0
2018-05-03 06:50,50.6304283333333,-96.9807733333333,5.5,6.6,249,982.68,9.2,41,4.63,0.0,1009.47,360.0
2018-05-03 07:00,50.6304183333333,-96.9807616666667,6.2,7.8,254,982.72,9.1,41,4.62,0.0,1009.53,60.8
2018-05-03 07:10,50.6304333333333,-96.9807783333333,6.0,7.9,245,982.74,8.7,43,4.63,0.0,1009.59,60.8
2018-05-03 07:20,50.63041,-96.980745,4.3,5.3,254,982.75,8.4,44,4.63,0.0,1009.62,60.8
2018-05-03 07:30,50.6304183333333,-96.9807533333333,3.1,4.5,248,982.79,8.1,46,4.64,0.0,1009.69,60.8
2018-05-03 07:40,50.6304233333333,-96.980755,3.4,4.1,249,982.76,7.8,47,4.64,0.0,1009.69,60.8
2018-05-03 07:50,50.6304266666667,-96.9807566666667,3.7,4.8,248,982.77,7.5,49,4.63,0.0,1009.71,60.8
2018-05-03 08:00,50.6304566666667,-96.9807666666667,3.2,4.3,262,982.74,7.1,51,4.62,0.0,1009.68,9.8
2018-05-03 08:10,50.630435,-96.980755,1.0,2.6,270,982.73,6.8,53,4.61,0.0,1009.68,9.8
2018-05-03 08:20,50.63044,-96.9807483333333,1.5,2.0,244,982.75,6.5,54,4.60,0.0,1009.70,9.8
2018-05-03 08:30,50.630415,-96.9807466666667,1.7,2.9,243,982.73,6.3,55,4.60,0.0,1009.68,9.8
2018-05-03 08:40,50.6304433333333,-96.9807516666667,2.3,3.0,236,982.72,6.2,56,4.61,0.0,1009.67,9.8
2018-05-03 08:50,50.63044,-96.980755,3.0,4.1,250,982.75,6.0,57,4.60,0.0,1009.71,9.8
2018-05-03 09:00,50.6304416666667,-96.9807533333333,3.0,4.0,248,982.84,5.8,58,4.58,0.0,1009.83,60.8
2018-05-03 09:10,50.6304383333333,-96.98075,3.4,4.2,242,982.92,5.4,59,4.57,0.0,1009.95,60.8
2018-05-03 09:20,50.63044,-96.98075,3.3,4.2,250,982.94,5.1,61,4.57,0.0,1010.00,60.8
2018-05-03 09:30,50.6304383333333,-96.9807516666667,3.3,4.6,247,982.85,4.8,63,4.56,0.0,1009.93,60.8
2018-05-03 09:40,50.6304383333333,-96.98075,3.2,4.9,267,982.99,4.5,65,4.54,0.0,1010.11,60.8
2018-05-03 09:50,50.6304383333333,-96.98075,3.0,4.8,258,982.98,4.1,68,4.54,0.0,1010.15,60.8
2018-05-03 10:00,50.630425,-96.98075,3.2,4.3,230,982.98,3.3,72,4.54,0.0,1010.19,360.0
2018-05-03 10:10,50.6304266666667,-96.9807583333333,4.0,5.4,264,983.00,3.2,75,4.54,0.0,1010.23,360.0
2018-05-03 10:20,50.63043,-96.98076,5.5,7.6,269,983.05,3.6,75,4.52,0.0,1010.28,360.0
2018-05-03 10:30,50.6304316666667,-96.9807616666667,6.6,7.9,259,983.13,3.5,76,4.51,0.0,1010.37,360.0
2018-05-03 10:40,50.630415,-96.9807616666667,6.4,8.3,266,983.19,3.3,79,4.51,0.0,1010.45,360.0
2018-05-03 10:50,50.6304466666667,-96.9807733333333,6.2,8.1,270,983.20,3.2,81,4.50,0.0,1010.48,360.0
2018-05-03 11:00,50.63045,-96.9807716666667,6.1,7.9,273,983.33,2.8,83,4.50,0.0,1010.66,270.0
2018-05-03 11:10,50.6304233333333,-96.9807566666667,6.1,8.3,276,983.34,2.6,86,4.50,0.0,1010.69,270.0
2018-05-03 11:20,50.6304283333333,-96.98076,5.6,7.7,281,983.41,2.4,88,4.50,0.0,1010.78,270.0
2018-05-03 11:30,50.63043,-96.9807583333333,5.2,6.5,278,983.52,2.6,89,4.50,0.0,1010.90,270.0
2018-05-03 11:40,50.6304333333333,-96.98076,4.4,6.1,279,983.55,2.6,89,4.49,0.0,1010.95,270.0
2018-05-03 11:50,50.6304333333333,-96.9807583333333,6.4,9.5,280,983.59,2.9,88,4.49,0.0,1011.02,270.0
2018-05-03 12:00,50.6304266666667,-96.980765,7.5,9.2,278,983.73,3.1,88,4.49,0.0,1011.16,212.5
2018-05-03 12:10,50.630425,-96.9807583333333,6.7,8.5,279,983.92,3.2,88,4.48,0.0,1011.32,212.5
2018-05-03 12:20,50.6304266666667,-96.9807583333333,5.9,7.9,280,983.95,3.5,87,4.49,0.0,1011.35,212.5
2018-05-03 12:30,50.6304283333333,-96.980755,5.0,7.4,275,983.95,4.0,86,4.49,0.0,1011.33,212.5
2018-05-03 12:40,50.63043,-96.980755,3.1,5.0,270,983.95,4.5,85,4.49,0.0,1011.31,212.5
2018-05-03 12:50,50.6304283333333,-96.980755,3.7,6.0,258,984.04,5.2,83,4.47,0.0,1011.39,212.5
2018-05-03 13:00,50.6304283333333,-96.980755,3.8,6.0,265,984.10,5.7,81,4.46,0.0,1011.43,270.0
2018-05-03 13:10,50.63043,-96.980755,2.7,4.5,272,984.08,6.3,79,4.45,0.0,1011.39,270.0
2018-05-03 13:20,50.63043,-96.980755,1.7,3.5,286,984.06,7.1,76,4.45,0.0,1011.33,270.0
2018-05-03 13:30,50.630435,-96.9807733333333,0.2,2.3,353,984.05,8.1,71,4.45,0.0,1011.27,270.0
2018-05-03 13:40,50.630435,-96.9807783333333,0.0,0.8,89,984.01,9.0,67,4.46,0.0,1011.17,270.0
2018-05-03 13:50,50.630435,-96.9807583333333,0.1,1.1,266,983.94,9.1,66,4.47,0.0,1011.08,270.0
2018-05-03 14:00,50.63043,-96.98076,0.6,1.8,170,983.96,8.5,70,4.47,0.0,1011.12,360.0
2018-05-03 14:10,50.63043,-96.98076,2.1,4.3,136,983.96,7.7,74,4.47,0.0,1011.15,360.0
2018-05-03 14:20,50.63043,-96.9807616666667,8.0,9.6,127,984.00,5.5,87,4.48,0.0,1011.28,360.0
2018-05-03 14:30,50.63043,-96.980765,7.9,9.6,138,984.03,2.8,98,4.47,0.0,1011.42,360.0
2018-05-03 14:40,50.63043,-96.9807666666667,5.4,7.3,139,984.04,2.7,99,4.45,0.0,1011.39,360.0
2018-05-03 14:50,50.630445,-96.98079,5.0,7.0,143,983.93,2.5,99,4.43,0.0,1011.26,360.0
2018-05-03 15:00,50.630445,-96.9807733333333,4.5,6.3,143,983.78,2.7,99,4.42,0.0,1011.08,336.5
2018-05-03 15:10,50.63042,-96.9807733333333,4.2,6.3,138,983.72,3.3,96,4.42,0.0,1010.94,336.5
2018-05-03 15:20,50.63042,-96.9807733333333,4.1,6.2,136,983.64,3.6,95,4.40,0.0,1010.79,336.5
2018-05-03 15:30,50.6304216666667,-96.9807733333333,3.8,5.3,124,983.50,3.6,95,4.39,0.0,1010.60,336.5
2018-05-03 15:40,50.6304366666667,-96.9807716666667,4.1,6.1,138,983.53,3.1,96,4.40,0.0,1010.66,336.5
2018-05-03 15:50,50.6304283333333,-96.9807283333333,4.5,6.4,143,983.52,2.4,99,4.40,0.0,1010.72,336.5
2018-05-03 16:00,50.630445,-96.9807516666667,5.9,7.6,147,983.45,2.5,99,4.39,0.0,1010.68,23.5
2018-05-03 16:10,50.6304333333333,-96.9807616666667,4.7,6.8,141,983.38,2.9,99,4.39,0.0,1010.69,23.5
2018-05-03 16:20,50.6304333333333,-96.9807583333333,4.7,6.2,140,983.32,3.1,98,4.42,0.0,1010.75,23.5
2018-05-03 16:30,50.63043,-96.9807566666667,4.5,5.9,128,983.18,3.8,97,4.42,0.0,1010.58,23.5
2018-05-03 16:40,50.6304283333333,-96.980755,3.1,6.5,120,983.09,4.2,93,4.42,0.0,1010.47,23.5
2018-05-03 16:50,50.630425,-96.9807666666667,2.8,5.6,137,983.04,4.1,94,4.42,0.0,1010.42,23.5
2018-05-03 17:00,50.630425,-96.9807533333333,4.9,9.3,124,982.82,4.2,95,4.44,0.0,1010.16,90.0
2018-05-03 17:10,50.6304483333333,-96.9807566666667,8.3,12.8,122,982.62,4.5,93,4.48,0.0,1009.93,90.0
2018-05-03 17:20,50.6304333333333,-96.9807683333333,13.1,15.2,121,982.40,4.8,91,4.49,0.0,1009.69,90.0
2018-05-03 17:30,50.630435,-96.9807633333333,13.6,15.5,124,982.33,5.3,86,4.47,0.0,1009.61,90.0
2018-05-03 17:40,50.630435,-96.98077,14.0,16.9,125,982.25,6.1,77,4.43,0.0,1009.53,90.0
2018-05-03 17:50,50.630435,-96.9807683333333,13.9,15.5,122,982.11,6.2,72,4.41,0.0,1009.37,90.0
2018-05-03 18:00,50.630435,-96.9807633333333,14.0,15.7,121,982.00,6.2,72,4.40,0.0,1009.24,131.7
2018-05-03 18:10,50.6304333333333,-96.9807633333333,14.1,16.0,119,981.80,6.1,68,4.42,0.0,1009.03,131.7
2018-05-03 18:20,50.6304333333333,-96.9807616666667,13.8,15.0,118,981.58,6.2,63,4.44,0.0,1008.77,131.7
2018-05-03 18:30,50.6304333333333,-96.9807616666667,12.5,14.2,118,981.40,6.5,60,4.45,0.0,1008.54,131.7
2018-05-03 18:40,50.6304333333333,-96.98076,12.0,13.4,113,981.32,6.5,61,4.48,0.0,1008.47,131.7
2018-05-03 18:50,50.6304316666667,-96.980785,11.7,14.4,114,981.24,6.1,64,4.49,0.0,1008.40,131.7
2018-05-03 19:00,50.6304316666667,-96.98077,11.8,14.2,118,981.21,6.5,59,4.52,0.0,1008.33,228.3
2018-05-03 19:10,50.6304316666667,-96.98077,11.1,12.9,118,981.29,6.1,61,4.58,0.0,1008.43,228.3
2018-05-03 19:20,50.6304333333333,-96.9807716666667,7.3,11.3,128,981.69,5.6,64,4.66,0.0,1008.83,228.3
2018-05-03 19:30,50.6304333333333,-96.9807716666667,5.4,8.8,171,982.15,6.8,51,4.68,0.0,1009.20,228.3
2018-05-03 19:40,50.6304333333333,-96.9807716666667,2.0,7.2,204,982.43,10.2,40,4.73,0.0,1009.32,228.3
2018-05-03 19:50,50.6304316666667,-96.98077,6.3,18.7,292,982.42,12.2,36,4.78,0.0,1009.22,228.3
2018-05-03 20:00,50.63043,-96.9807633333333,10.4,16.1,265,982.34,14.7,35,4.81,0.0,1009.02,270.0
2018-05-03 20:10,50.6304266666667,-96.9807516666667,7.0,14.0,274,982.01,14.9,34,4.86,0.0,1008.66,270.0
2018-05-03 20:20,50.63043,-96.98075,5.6,9.2,266,981.69,15.3,33,4.91,0.0,1008.31,270.0
2018-05-03 20:30,50.6304616666667,-96.9807533333333,4.3,7.8,229,981.50,15.6,32,5.00,0.0,1008.10,270.0
2018-05-03 20:40,50.63043,-96.9807466666667,4.5,7.2,191,981.27,15.9,31,5.05,0.0,1007.86,270.0
2018-05-03 20:50,50.6304333333333,-96.980755,5.3,9.0,149,981.00,16.3,31,5.08,0.0,1007.55,270.0
2018-05-03 21:00,50.6304366666667,-96.9807566666667,8.1,11.1,119,980.89,13.1,43,5.09,0.0,1007.61,90.0
2018-05-03 21:10,50.6304383333333,-96.98076,4.4,8.3,113,980.83,9.3,54,5.10,0.0,1007.75,90.0
2018-05-03 21:20,50.6304383333333,-96.9807566666667,2.0,5.5,103,980.74,9.5,50,5.13,0.0,1007.59,90.0
2018-05-03 21:30,50.63044,-96.9807583333333,3.1,9.9,84,980.65,10.8,47,5.23,0.0,1007.27,90.0
2018-05-03 21:40,50.63044,-96.9807566666667,4.3,9.4,94,980.61,10.7,47,5.22,0.0,1007.14,90.0
2018-05-03 21:50,50.63044,-96.9807566666667,11.0,13.7,114,980.53,8.8,55,5.21,0.0,1007.03,90.0
2018-05-03 22:00,50.63044,-96.9807566666667,5.4,12.3,133,980.62,8.6,53,5.20,0.0,1007.13,14.5
2018-05-03 22:10,50.6304433333333,-96.980775,10.6,18.1,191,980.50,12.8,39,5.18,0.0,1006.79,14.5
2018-05-03 22:20,50.6304266666667,-96.9807616666667,12.9,19.3,207,980.32,17.0,33,5.17,0.0,1006.40,14.5
2018-05-03 22:30,50.6304233333333,-96.980765,13.1,20.6,207,980.19,17.0,33,5.23,0.0,1006.25,14.5
2018-05-03 22:40,50.6304266666667,-96.98076,11.3,19.0,212,980.16,17.7,31,5.24,0.0,1006.16,14.5
2018-05-03 22:50,50.6304216666667,-96.9807233333333,12.5,19.0,209,980.06,18.1,31,5.19,0.0,1006.20,14.5
2018-05-03 23:00,50.6304333333333,-96.980755,11.4,17.5,232,980.04,18.7,29,5.16,0.0,1006.32,12.6
2018-05-03 23:10,50.6304366666667,-96.980755,11.2,17.9,231,979.95,19.4,27,5.13,0.0,1006.19,12.6
2018-05-03 23:20,50.6304366666667,-96.9807566666667,9.2,14.3,232,979.90,19.6,28,5.11,0.0,1006.06,12.6
2018-05-03 23:30,50.6304366666667,-96.980755,8.4,12.7,231,979.80,19.6,28,5.11,0.0,1005.96,12.6
